Weather History for Greenville Downtown, SC

Change the Weather History Date:

Thursday, February 6, 2014

  Actual Average Record
Temperature  
Mean Temperature 36 °F -  
Max Temperature 43 °F 52 °F 71 °F (1999)
Min Temperature 30 °F 35 °F 23 °F (2007)
Degree Days  
Heating Degree Days 28    
Moisture  
Dew Point 22 °F    
Average Humidity 53    
Maximum Humidity 67    
Minimum Humidity 43    
Precipitation  
Precipitation 0.00 in - - ()
Sea Level Pressure  
Sea Level Pressure 30.25 in    
Wind  
Wind Speed 6 mph (NE)    
Max Wind Speed 14 mph    
Max Gust Speed 21 mph    
Visibility 10 miles    
Events      
Averages and records for this station are not official NWS values.
T = Trace of Precipitation, MM = Missing Value Source: NWS Daily Summary

Daily Weather History Graph

Daily Weather History Graph

Search for Another Location

Airport:

Trip Planner

Search our weather history database for the weather conditions in past years. The results will help you decide how hot, cold, wet, or windy it might be!

Date:

Astronomy

Feb. 06, 2014 Rise Set
Actual Time 7:23 AM EST 6:03 PM EST
Civil Twilight 6:57 AM EST 6:29 PM EST
Nautical Twilight 6:27 AM EST 6:59 PM EST
Astronomical Twilight 5:58 AM EST 7:29 PM EST
Moon 11:35 AM EST (2/6) 12:38 AM EST (2/6)
Length of Visible Light 11h 32m
Length of Day
10h 39m
Waxing Crescent, 49% of the Moon is Illuminated
Feb 6
Waxing Crescent
Feb 6
First Quarter
Feb 14
Full
Feb 22
Last Quarter
Mar 1
New

Hourly Weather History & Observations

Time (EST) Temp. Windchill Dew Point Humidity Pressure Visibility Wind Dir Wind Speed Gust Speed Precip Events Conditions
12:53 AM 36.0 °F 32.1 °F 25.0 °F 64% 30.13 in 10.0 mi NNE 4.6 mph - N/A   Clear
1:53 AM 35.1 °F 28.6 °F 25.0 °F 67% 30.15 in 10.0 mi North 8.1 mph - N/A   Clear
2:53 AM 34.0 °F 24.6 °F 23.0 °F 64% 30.16 in 10.0 mi North 13.8 mph - N/A   Clear
3:53 AM 32.0 °F 22.5 °F 21.0 °F 64% 30.17 in 10.0 mi North 12.7 mph 20.7 mph N/A   Clear
4:53 AM 30.9 °F 20.7 °F 19.9 °F 64% 30.20 in 10.0 mi North 13.8 mph - N/A   Clear
5:53 AM 32.0 °F 22.1 °F 19.0 °F 59% 30.22 in 10.0 mi NNE 13.8 mph - N/A   Clear
6:53 AM 32.0 °F 24.2 °F 19.0 °F 59% 30.25 in 10.0 mi North 9.2 mph - N/A   Clear
7:53 AM 32.0 °F 25.6 °F 19.9 °F 61% 30.28 in 10.0 mi NNE 6.9 mph - N/A   Clear
8:53 AM 34.0 °F 26.6 °F 19.9 °F 56% 30.30 in 10.0 mi NNE 9.2 mph - N/A   Clear
9:53 AM 37.0 °F 31.6 °F 19.9 °F 50% 30.32 in 10.0 mi NNE 6.9 mph - N/A   Clear
10:53 AM 39.0 °F - 21.0 °F 49% 30.32 in 10.0 mi Calm Calm - N/A   Clear
11:53 AM 41.0 °F - 21.0 °F 45% 30.30 in 10.0 mi Calm Calm - N/A   Clear
12:53 PM 42.1 °F 40.2 °F 21.0 °F 43% 30.28 in 10.0 mi Variable 3.5 mph - N/A   Clear
1:53 PM 42.1 °F 39.2 °F 21.0 °F 43% 30.24 in 10.0 mi SE 4.6 mph - N/A   Clear
2:53 PM 43.0 °F 40.3 °F 21.9 °F 43% 30.23 in 10.0 mi East 4.6 mph - N/A   Clear
3:53 PM 43.0 °F - 21.9 °F 43% 30.24 in 10.0 mi Calm Calm - N/A   Clear
4:53 PM 43.0 °F - 21.9 °F 43% 30.24 in 10.0 mi Calm Calm - N/A   Partly Cloudy
5:53 PM 43.0 °F - 21.9 °F 43% 30.27 in 10.0 mi Calm Calm - N/A   Partly Cloudy
6:53 PM 43.0 °F - 23.0 °F 45% 30.30 in 10.0 mi Calm Calm - N/A   Clear
7:53 PM 42.1 °F 40.2 °F 24.1 °F 49% 30.29 in 10.0 mi SE 3.5 mph - N/A   Overcast
8:53 PM 42.1 °F - 25.0 °F 51% 30.29 in 10.0 mi Calm Calm - N/A   Overcast
9:53 PM 42.1 °F - 26.1 °F 53% 30.30 in 10.0 mi Calm Calm - N/A   Overcast
10:53 PM 41.0 °F - 25.0 °F 53% 30.30 in 10.0 mi Calm Calm - N/A   Overcast
11:53 PM 39.9 °F 37.8 °F 24.1 °F 53% 30.27 in 10.0 mi SE 3.5 mph - N/A   Overcast